Regional Weather Roundup
Issued by NWS

Home | Current Version | Previous Version | Graphics & Text | Print | Product List | Glossary On
Versions: 1 2 3 4 5 6 7 8 9 10 11 12 13 14 15 16 17 18 19 20 21 22 23 24 25 26 27 28 29 30 31 32 33 34 35 36 37 38 39 40 41 42 43 44 45 46 47 48 49 50
000
ASUS45 KSLC 290610
RWRUT

UTAH REGIONAL WEATHER ROUNDUP
NATIONAL WEATHER SERVICE SALT LAKE CITY UT
1200 AM MDT MON AUG 29 2016

UTZ001>011-023>025-290700-

NORTHERN UTAH

CITY           SKY/WX    TMP DP  RH WIND       PRES   REMARKS
BRIGHAM CITY     N/A     67  43  41 N5        30.17S
HILL AFB       CLEAR     70  32  24 SE12      30.20R
LOGAN          CLEAR     56  46  69 N7        30.20R
OGDEN          CLEAR     68  32  26 S8        30.17S
PROVO AIRPORT  CLEAR     63  43  48 SE5       30.19R
SALT LAKE CITY CLEAR     74  33  22 S9        30.15S
VERNAL         CLEAR     65  38  36 CALM      30.22R
WENDOVER       CLEAR     70  34  26 CALM      30.17S
HEBER CITY     CLEAR     54  34  47 SE3       30.27R
WEST JORDAN    CLEAR     67  34  29 CALM      30.20R

$$

UTZ012>022-026-027-290700-

SOUTHERN/CENTRAL UTAH

CITY           SKY/WX    TMP DP  RH WIND       PRES   REMARKS
BLANDING       CLEAR     58  45  60 N5        30.34S
BRYCE CANYON   CLEAR     49  44  83 W5        30.41S
CEDAR CITY     CLEAR     65  42  43 SE8       30.26R
MILFORD        CLEAR     66  28  24 SW7       30.21R
MOAB/CYNLANDS  CLEAR     73  42  32 VRB7      30.17R
PRICE          PTCLDY    70  37  29 E9        30.27F
ST GEORGE      CLEAR     75  54  46 CALM      30.09S

$$

REGIONAL REPORTS     COLORADO/ARIZONA

CITY           SKY/WX    TMP DP  RH WIND       PRES   REMARKS
CRAIG, CO      CLOUDY    56  40  55 E3        30.31F
GRAND JUNCTION CLOUDY    64  44  48 SE8       30.23F
RIFLE          CLOUDY    58  50  75 CALM      30.29S
MONTROSE       CLOUDY    59  45  59 SE13      30.32F
CORTEZ         CLOUDY    52  47  83 CALM      30.26F
PAGE, AZ       CLEAR     72  43  35 CALM      30.16R
GRAND CANYON   CLEAR     51  47  86 CALM      30.35R
KINGMAN        CLEAR     71  53  52 SE6       30.11S
FLAGSTAFF      CLEAR     48  44  86 CALM      30.35S

$$

REGIONAL REPORTS    NEVADA/IDAHO/WYOMING

CITY           SKY/WX    TMP DP  RH WIND       PRES   REMARKS
LAS VEGAS, NV  CLEAR     86  45  23 SW6       29.98R
ELY            CLEAR     56  23  27 S10       30.30R
ELKO           CLEAR     63  28  26 E5        30.21R
POCATELLO, ID  CLEAR     63  36  36 SE5       30.20R
BURLEY         CLEAR     55  44  66 S3        30.16R
EVANSTON, WY   CLEAR     64  28  25 S3        30.38R
ROCK SPRINGS   CLEAR     62  24  23 NW8       30.31S

$$



USA.gov is the U.S. government's official web portal to all federal, state and local government web resources and services.